Simultaneous Nadir Overpasses (SNOs) Predictions

Prediction of SNOs between GOES-16 and AQUA Satellite Orbit:

Table of predicted SNOs for the next 14.0 days since TLE Epoch: 8/15/2025
Index Date Time (GOES-16) GOES-16 Lat,Lon AQUA Lat,Lon Distance(km) Time Diff (sec)
1 08/16/2025 09:58:57 -0.07,-104.73 0.37,-106.86 242.53 80
2 08/18/2025 09:35:47 -0.08,-104.72 -0.70,-101.84 327.46 80
3 08/18/2025 21:55:02 0.08,-104.72 -0.31,-106.49 201.58 80
4 08/20/2025 21:37:12 0.09,-104.72 0.79,-101.47 369.06 80
5 08/21/2025 09:56:18 -0.09,-104.71 0.22,-106.08 156.33 80
6 08/23/2025 09:33:08 -0.09,-104.71 -0.90,-101.07 415.09 80
7 08/23/2025 21:52:22 0.09,-104.71 -0.14,-105.71 113.83 80
8 08/25/2025 21:34:31 0.10,-104.72 0.95,-100.69 458.65 80
9 08/26/2025 09:53:37 -0.10,-104.72 0.04,-105.30 66.02 80
10 08/28/2025 21:49:39 0.10,-104.73 0.06,-104.93 22.62 80
